Location: *
(41.7492°S, 135.4150°W)
Time: 00:28:19
(UTC+00:00)

Cosmos 2292 Rocket - Pass Details

Date: 20 September 2021
Orbit: 379 x 1445 km, 83.0° (Epoch: 25 October)

Event Time Altitude Azimuth Distance (km) Brightness Sun altitude
Exits shadow 13:06:53 42° 293° (WNW) 1,112 4.3 -20.4°
Maximum altitude 13:08:02 49° 256° (WSW) 1,052 4.3 -20.2°
Drops below altitude 10° 13:14:13 10° 181° (S) 2,833 7.1 -19.1°
Sets 13:17:18 0° 176° (S) 3,971 8.0 -18.6°
